Year,Month,Day,Hour,Minute,Value (Times are PST for temperature in C)
2011,04,19,00,00,0.90
2011,04,19,00,01,0.90
2011,04,19,00,02,0.90
2011,04,19,00,03,0.80
2011,04,19,00,04,0.80
2011,04,19,00,05,0.80
2011,04,19,00,06,0.80
2011,04,19,00,07,0.80
2011,04,19,00,08,0.80
2011,04,19,00,09,0.80
2011,04,19,00,10,0.80
2011,04,19,00,11,0.80
2011,04,19,00,12,0.80
2011,04,19,00,13,0.80
2011,04,19,00,14,0.80
2011,04,19,00,15,0.80
2011,04,19,00,16,0.80
2011,04,19,00,17,0.80
2011,04,19,00,18,0.80
2011,04,19,00,19,0.80
2011,04,19,00,20,0.70
2011,04,19,00,21,0.70
2011,04,19,00,22,0.80
2011,04,19,00,23,0.70
2011,04,19,00,24,0.70
2011,04,19,00,25,0.70
2011,04,19,00,26,0.70
2011,04,19,00,27,0.70
2011,04,19,00,28,0.70
2011,04,19,00,29,0.70
2011,04,19,00,30,0.70
2011,04,19,00,31,0.60
2011,04,19,00,32,0.60
2011,04,19,00,33,0.60
2011,04,19,00,34,0.60
2011,04,19,00,35,0.60
2011,04,19,00,36,0.60
2011,04,19,00,37,0.60
2011,04,19,00,38,0.60
2011,04,19,00,39,0.60
2011,04,19,00,40,0.60
2011,04,19,00,41,0.60
2011,04,19,00,42,0.60
2011,04,19,00,43,0.60
2011,04,19,00,44,0.60
2011,04,19,00,45,0.60
2011,04,19,00,46,0.60
2011,04,19,00,47,0.60
2011,04,19,00,48,0.60
2011,04,19,00,49,0.60
2011,04,19,00,50,0.60
2011,04,19,00,51,0.60
2011,04,19,00,52,0.60
2011,04,19,00,53,0.60
2011,04,19,00,54,0.60
2011,04,19,00,55,0.60
2011,04,19,00,56,0.60
2011,04,19,00,57,0.60
2011,04,19,00,58,0.60
2011,04,19,00,59,0.60
2011,04,19,01,00,0.60
2011,04,19,01,01,0.60
2011,04,19,01,02,0.60
2011,04,19,01,03,0.60
2011,04,19,01,04,0.60
2011,04,19,01,05,0.60
2011,04,19,01,06,0.60
2011,04,19,01,07,0.60
2011,04,19,01,08,0.60
2011,04,19,01,09,0.60
2011,04,19,01,10,0.60
2011,04,19,01,11,0.60
2011,04,19,01,12,0.60
2011,04,19,01,13,0.60
2011,04,19,01,14,0.60
2011,04,19,01,15,0.60
2011,04,19,01,16,0.50
2011,04,19,01,17,0.50
2011,04,19,01,18,0.50
2011,04,19,01,19,0.50
2011,04,19,01,20,0.50
2011,04,19,01,21,0.40
2011,04,19,01,22,0.40
2011,04,19,01,23,0.40
2011,04,19,01,24,0.40
2011,04,19,01,25,0.40
2011,04,19,01,26,0.40
2011,04,19,01,27,0.40
2011,04,19,01,28,0.40
2011,04,19,01,29,0.40
2011,04,19,01,30,0.40
2011,04,19,01,31,0.40
2011,04,19,01,32,0.40
2011,04,19,01,33,0.40
2011,04,19,01,34,0.30
2011,04,19,01,35,0.30
2011,04,19,01,36,0.30
2011,04,19,01,37,0.30
2011,04,19,01,38,0.30
2011,04,19,01,39,0.30
2011,04,19,01,40,0.30
2011,04,19,01,41,0.30
2011,04,19,01,42,0.30
2011,04,19,01,43,0.30
2011,04,19,01,44,0.30
2011,04,19,01,45,0.30
2011,04,19,01,46,0.30
2011,04,19,01,47,0.30
2011,04,19,01,48,0.30
2011,04,19,01,49,0.30
2011,04,19,01,50,0.30
2011,04,19,01,51,0.30
2011,04,19,01,52,0.20
2011,04,19,01,53,0.20
2011,04,19,01,54,0.20
2011,04,19,01,55,0.20
2011,04,19,01,56,0.20
2011,04,19,01,57,0.20
2011,04,19,01,58,0.20
2011,04,19,01,59,0.20
2011,04,19,02,00,0.20
2011,04,19,02,01,0.20
2011,04,19,02,02,0.20
2011,04,19,02,03,0.20
2011,04,19,02,04,0.20
2011,04,19,02,05,0.20
2011,04,19,02,06,0.20
2011,04,19,02,07,0.20
2011,04,19,02,08,0.20
2011,04,19,02,09,0.20
2011,04,19,02,10,0.10
2011,04,19,02,11,0.10
2011,04,19,02,12,0.10
2011,04,19,02,13,0.10
2011,04,19,02,14,0.10
2011,04,19,02,15,0.10
2011,04,19,02,16,0.00
2011,04,19,02,17,0.00
2011,04,19,02,18,0.00
2011,04,19,02,19,0.00
2011,04,19,02,20,0.00
2011,04,19,02,21,0.00
2011,04,19,02,22,0.00
2011,04,19,02,23,-0.10
2011,04,19,02,24,-0.10
2011,04,19,02,25,-0.10
2011,04,19,02,26,-0.10
2011,04,19,02,27,-0.10
2011,04,19,02,28,-0.10
2011,04,19,02,29,-0.10
2011,04,19,02,30,-0.10
2011,04,19,02,31,-0.10
2011,04,19,02,32,-0.10
2011,04,19,02,33,-0.10
2011,04,19,02,34,-0.10
2011,04,19,02,35,-0.10
2011,04,19,02,36,-0.10
2011,04,19,02,37,-0.10
2011,04,19,02,38,-0.10
2011,04,19,02,39,0.00
2011,04,19,02,40,0.00
2011,04,19,02,41,0.00
2011,04,19,02,42,0.00
2011,04,19,02,43,0.10
2011,04,19,02,44,0.10
2011,04,19,02,45,0.10
2011,04,19,02,46,0.10
2011,04,19,02,47,0.20
2011,04,19,02,48,0.20
2011,04,19,02,49,0.20
2011,04,19,02,50,0.20
2011,04,19,02,51,0.30
2011,04,19,02,52,0.30
2011,04,19,02,53,0.30
2011,04,19,02,54,0.30
2011,04,19,02,55,0.30
2011,04,19,02,56,0.30
2011,04,19,02,57,0.40
2011,04,19,02,58,0.40
2011,04,19,02,59,0.40
2011,04,19,03,00,0.40
2011,04,19,03,01,0.50
2011,04,19,03,02,0.50
2011,04,19,03,03,0.60
2011,04,19,03,04,0.60
2011,04,19,03,05,0.60
2011,04,19,03,06,0.70
2011,04,19,03,07,0.70
2011,04,19,03,08,0.70
2011,04,19,03,09,0.70
2011,04,19,03,10,0.70
2011,04,19,03,11,0.70
2011,04,19,03,12,0.80
2011,04,19,03,13,0.80
2011,04,19,03,14,0.80
2011,04,19,03,15,0.80
2011,04,19,03,16,0.80
2011,04,19,03,17,0.80
2011,04,19,03,18,0.90
2011,04,19,03,19,0.90
2011,04,19,03,20,0.90
2011,04,19,03,21,0.90
2011,04,19,03,22,1.00
2011,04,19,03,23,1.00
2011,04,19,03,24,1.00
2011,04,19,03,25,1.10
2011,04,19,03,26,1.10
2011,04,19,03,27,1.10
2011,04,19,03,28,1.10
2011,04,19,03,29,1.10
2011,04,19,03,30,1.10
2011,04,19,03,31,1.10
2011,04,19,03,32,1.10
2011,04,19,03,33,1.10
2011,04,19,03,34,1.20
2011,04,19,03,35,1.20
2011,04,19,03,36,1.20
2011,04,19,03,37,1.20
2011,04,19,03,38,1.20
2011,04,19,03,39,1.20
2011,04,19,03,40,1.20
2011,04,19,03,41,1.20
2011,04,19,03,42,1.20
2011,04,19,03,43,1.20
2011,04,19,03,44,1.20
2011,04,19,03,45,1.20
2011,04,19,03,46,1.20
2011,04,19,03,47,1.20
2011,04,19,03,48,1.30
2011,04,19,03,49,1.30
2011,04,19,03,50,1.30
2011,04,19,03,51,1.30
2011,04,19,03,52,1.30
2011,04,19,03,53,1.30
2011,04,19,03,54,1.30
2011,04,19,03,55,1.30
2011,04,19,03,56,1.30
2011,04,19,03,57,1.30
2011,04,19,03,58,1.30
2011,04,19,03,59,1.30
2011,04,19,04,00,1.30
2011,04,19,04,01,1.30
2011,04,19,04,02,1.30
2011,04,19,04,03,1.30
2011,04,19,04,04,1.30
2011,04,19,04,05,1.30
2011,04,19,04,06,1.30
2011,04,19,04,07,1.30
2011,04,19,04,08,1.30
2011,04,19,04,09,1.40
2011,04,19,04,10,1.40
2011,04,19,04,11,1.40
2011,04,19,04,12,1.40
2011,04,19,04,13,1.40
2011,04,19,04,14,1.40
2011,04,19,04,15,1.40
2011,04,19,04,16,1.50
2011,04,19,04,17,1.50
2011,04,19,04,18,1.50
2011,04,19,04,19,1.50
2011,04,19,04,20,1.50
2011,04,19,04,21,1.50
2011,04,19,04,22,1.50
2011,04,19,04,23,1.50
2011,04,19,04,24,1.50
2011,04,19,04,25,1.50
2011,04,19,04,26,1.50
2011,04,19,04,27,1.60
2011,04,19,04,28,1.60
2011,04,19,04,29,1.60
2011,04,19,04,30,1.60
2011,04,19,04,31,1.60
2011,04,19,04,32,1.60
2011,04,19,04,33,1.60
2011,04,19,04,34,1.60
2011,04,19,04,35,1.60
2011,04,19,04,36,1.60
2011,04,19,04,37,1.60
2011,04,19,04,38,1.60
2011,04,19,04,39,1.60
2011,04,19,04,40,1.60
2011,04,19,04,41,1.60
2011,04,19,04,42,1.60
2011,04,19,04,43,1.60
2011,04,19,04,44,1.60
2011,04,19,04,45,1.60
2011,04,19,04,46,1.70
2011,04,19,04,47,1.70
2011,04,19,04,48,1.70
2011,04,19,04,49,1.70
2011,04,19,04,50,1.70
2011,04,19,04,51,1.70
2011,04,19,04,52,1.70
2011,04,19,04,53,1.70
2011,04,19,04,54,1.70
2011,04,19,04,55,1.70
2011,04,19,04,56,1.70
2011,04,19,04,57,1.70
2011,04,19,04,58,1.70
2011,04,19,04,59,1.70
2011,04,19,05,00,1.70
2011,04,19,05,01,1.70
2011,04,19,05,02,1.70
2011,04,19,05,03,1.70
2011,04,19,05,04,1.70
2011,04,19,05,05,1.70
2011,04,19,05,06,1.70
2011,04,19,05,07,1.70
2011,04,19,05,08,1.70
2011,04,19,05,09,1.70
2011,04,19,05,10,1.70
2011,04,19,05,11,1.70
2011,04,19,05,12,1.70
2011,04,19,05,13,1.70
2011,04,19,05,14,1.70
2011,04,19,05,15,1.70
2011,04,19,05,16,1.70
2011,04,19,05,17,1.60
2011,04,19,05,18,1.60
2011,04,19,05,19,1.60
2011,04,19,05,20,1.60
2011,04,19,05,21,1.60
2011,04,19,05,22,1.60
2011,04,19,05,23,1.50
2011,04,19,05,24,1.50
2011,04,19,05,25,1.50
2011,04,19,05,26,1.50
2011,04,19,05,27,1.40
2011,04,19,05,28,1.40
2011,04,19,05,29,1.40
2011,04,19,05,30,1.30
2011,04,19,05,31,1.30
2011,04,19,05,32,1.30
2011,04,19,05,33,1.30
2011,04,19,05,34,1.30
2011,04,19,05,35,1.30
2011,04,19,05,36,1.30
2011,04,19,05,37,1.30
2011,04,19,05,38,1.30
2011,04,19,05,39,1.30
2011,04,19,05,40,1.30
2011,04,19,05,41,1.30
2011,04,19,05,42,1.30
2011,04,19,05,43,1.30
2011,04,19,05,44,1.30
2011,04,19,05,45,1.30
2011,04,19,05,46,1.20
2011,04,19,05,47,1.20
2011,04,19,05,48,1.20
2011,04,19,05,49,1.10
2011,04,19,05,50,1.10
2011,04,19,05,51,1.00
2011,04,19,05,52,1.00
2011,04,19,05,53,1.00
2011,04,19,05,54,0.90
2011,04,19,05,55,0.90
2011,04,19,05,56,0.90
2011,04,19,05,57,0.80
2011,04,19,05,58,0.80
2011,04,19,05,59,0.80
2011,04,19,06,00,0.80
2011,04,19,06,01,0.70
2011,04,19,06,02,0.70
2011,04,19,06,03,0.70
2011,04,19,06,04,0.60
2011,04,19,06,05,0.60
2011,04,19,06,06,0.60
2011,04,19,06,07,0.60
2011,04,19,06,08,0.50
2011,04,19,06,09,0.50
2011,04,19,06,10,0.50
2011,04,19,06,11,0.50
2011,04,19,06,12,0.40
2011,04,19,06,13,0.40
2011,04,19,06,14,0.40
2011,04,19,06,15,0.30
2011,04,19,06,16,0.30
2011,04,19,06,17,0.30
2011,04,19,06,18,0.30
2011,04,19,06,19,0.30
2011,04,19,06,20,0.20
2011,04,19,06,21,0.20
2011,04,19,06,22,0.20
2011,04,19,06,23,0.20
2011,04,19,06,24,0.20
2011,04,19,06,25,0.10
2011,04,19,06,26,0.10
2011,04,19,06,27,0.10
2011,04,19,06,28,0.10
2011,04,19,06,29,0.00
2011,04,19,06,30,0.00
2011,04,19,06,31,0.00
2011,04,19,06,32,-0.10
2011,04,19,06,33,-0.10
2011,04,19,06,34,-0.10
2011,04,19,06,35,-0.10
2011,04,19,06,36,-0.10
2011,04,19,06,37,-0.20
2011,04,19,06,38,-0.20
2011,04,19,06,39,-0.20
2011,04,19,06,40,-0.20
2011,04,19,06,41,-0.20
2011,04,19,06,42,-0.20
2011,04,19,06,43,-0.20
2011,04,19,06,44,-0.20
2011,04,19,06,45,-0.20
2011,04,19,06,46,-0.20
2011,04,19,06,47,-0.20
2011,04,19,06,48,-0.20
2011,04,19,06,49,-0.20
2011,04,19,06,50,-0.20
2011,04,19,06,51,-0.20
2011,04,19,06,52,-0.20
2011,04,19,06,53,-0.20
2011,04,19,06,54,-0.20
2011,04,19,06,55,-0.20
2011,04,19,06,56,-0.20
2011,04,19,06,57,-0.20
2011,04,19,06,58,-0.20
2011,04,19,06,59,-0.20
2011,04,19,07,00,-0.10
2011,04,19,07,01,-0.10
2011,04,19,07,02,-0.10
2011,04,19,07,03,-0.10
2011,04,19,07,04,0.00
2011,04,19,07,05,0.00
2011,04,19,07,06,0.00
2011,04,19,07,07,0.10
2011,04,19,07,08,0.10
2011,04,19,07,09,0.10
2011,04,19,07,10,0.20
2011,04,19,07,11,0.20
2011,04,19,07,12,0.30
2011,04,19,07,13,0.30
2011,04,19,07,14,0.40
2011,04,19,07,15,0.40
2011,04,19,07,16,0.40
2011,04,19,07,17,0.50
2011,04,19,07,18,0.50
2011,04,19,07,19,0.50
2011,04,19,07,20,0.60
2011,04,19,07,21,0.60
2011,04,19,07,22,0.60
2011,04,19,07,23,0.60
2011,04,19,07,24,0.70
2011,04,19,07,25,0.70
2011,04,19,07,26,0.70
2011,04,19,07,27,0.70
2011,04,19,07,28,0.70
2011,04,19,07,29,0.80
2011,04,19,07,30,0.80
2011,04,19,07,31,0.80
2011,04,19,07,32,0.80
2011,04,19,07,33,0.90
2011,04,19,07,34,0.90
2011,04,19,07,35,0.90
2011,04,19,07,36,1.00
2011,04,19,07,37,1.00
2011,04,19,07,38,1.10
2011,04,19,07,39,1.20
2011,04,19,07,40,1.30
2011,04,19,07,41,1.30
2011,04,19,07,42,1.30
2011,04,19,07,43,1.30
2011,04,19,07,44,1.30
2011,04,19,07,45,1.40
2011,04,19,07,46,1.50
2011,04,19,07,47,1.60
2011,04,19,07,48,1.60
2011,04,19,07,49,1.70
2011,04,19,07,50,1.70
2011,04,19,07,51,1.80
2011,04,19,07,52,1.80
2011,04,19,07,53,1.90
2011,04,19,07,54,1.90
2011,04,19,07,55,2.00
2011,04,19,07,56,2.00
2011,04,19,07,57,2.10
2011,04,19,07,58,2.20
2011,04,19,07,59,2.20
2011,04,19,08,00,2.30
2011,04,19,08,01,2.40
2011,04,19,08,02,2.40
2011,04,19,08,03,2.50
2011,04,19,08,04,2.50
2011,04,19,08,05,2.60
2011,04,19,08,06,2.60
2011,04,19,08,07,2.70
2011,04,19,08,08,2.70
2011,04,19,08,09,2.80
2011,04,19,08,10,2.80
2011,04,19,08,11,2.90
2011,04,19,08,12,2.90
2011,04,19,08,13,2.90
2011,04,19,08,14,2.90
2011,04,19,08,15,3.00
2011,04,19,08,16,3.00
2011,04,19,08,17,3.00
2011,04,19,08,18,3.10
2011,04,19,08,19,3.10
2011,04,19,08,20,3.10
2011,04,19,08,21,3.10
2011,04,19,08,22,3.10
2011,04,19,08,23,3.10
2011,04,19,08,24,3.20
2011,04,19,08,25,3.20
2011,04,19,08,26,3.20
2011,04,19,08,27,3.30
2011,04,19,08,28,3.30
2011,04,19,08,29,3.40
2011,04,19,08,30,3.40
2011,04,19,08,31,3.50
2011,04,19,08,32,3.50
2011,04,19,08,33,3.60
2011,04,19,08,34,3.70
2011,04,19,08,35,3.70
2011,04,19,08,36,3.80
2011,04,19,08,37,3.80
2011,04,19,08,38,3.80
2011,04,19,08,39,3.80
2011,04,19,08,40,3.80
2011,04,19,08,41,3.90
2011,04,19,08,42,3.80
2011,04,19,08,43,3.90
2011,04,19,08,44,3.80
2011,04,19,08,45,3.80
2011,04,19,08,46,3.80
2011,04,19,08,47,3.80
2011,04,19,08,48,3.80
2011,04,19,08,49,3.80
2011,04,19,08,50,3.80
2011,04,19,08,51,3.80
2011,04,19,08,52,3.80
2011,04,19,08,53,3.80
2011,04,19,08,54,3.80
2011,04,19,08,55,3.80
2011,04,19,08,56,3.80
2011,04,19,08,57,3.80
2011,04,19,08,58,3.80
2011,04,19,08,59,3.80
2011,04,19,09,00,3.70
2011,04,19,09,01,3.70
2011,04,19,09,02,3.70
2011,04,19,09,03,3.80
2011,04,19,09,04,3.80
2011,04,19,09,05,3.90
2011,04,19,09,06,3.90
2011,04,19,09,07,3.90
2011,04,19,09,08,4.00
2011,04,19,09,09,4.00
2011,04,19,09,10,4.10
2011,04,19,09,11,4.10
2011,04,19,09,12,4.20
2011,04,19,09,13,4.20
2011,04,19,09,14,4.20
2011,04,19,09,15,4.30
2011,04,19,09,16,4.30
2011,04,19,09,17,4.40
2011,04,19,09,18,4.40
2011,04,19,09,19,4.50
2011,04,19,09,20,4.60
2011,04,19,09,21,4.70
2011,04,19,09,22,4.70
2011,04,19,09,23,4.80
2011,04,19,09,24,4.80
2011,04,19,09,25,4.90
2011,04,19,09,26,4.90
2011,04,19,09,27,4.90
2011,04,19,09,28,5.00
2011,04,19,09,29,5.00
2011,04,19,09,30,5.10
2011,04,19,09,31,5.10
2011,04,19,09,32,5.20
2011,04,19,09,33,5.20
2011,04,19,09,34,5.30
2011,04,19,09,35,5.30
2011,04,19,09,36,5.40
2011,04,19,09,37,5.50
2011,04,19,09,38,5.50
2011,04,19,09,39,5.60
2011,04,19,09,40,5.70
2011,04,19,09,41,5.80
2011,04,19,09,42,6.00
2011,04,19,09,43,6.10
2011,04,19,09,44,6.10
2011,04,19,09,45,6.20
2011,04,19,09,46,6.30
2011,04,19,09,47,6.30
2011,04,19,09,48,6.30
2011,04,19,09,49,6.30
2011,04,19,09,50,6.30
2011,04,19,09,51,6.40
2011,04,19,09,52,6.50
2011,04,19,09,53,6.50
2011,04,19,09,54,6.60
2011,04,19,09,55,6.60
2011,04,19,09,56,6.50
2011,04,19,09,57,6.40
2011,04,19,09,58,6.40
2011,04,19,09,59,6.40
2011,04,19,10,00,6.40
2011,04,19,10,01,6.40
2011,04,19,10,02,6.50
2011,04,19,10,03,6.60
2011,04,19,10,04,6.60
2011,04,19,10,05,6.70
2011,04,19,10,06,6.80
2011,04,19,10,07,6.80
2011,04,19,10,08,6.90
2011,04,19,10,09,6.90
2011,04,19,10,10,6.90
2011,04,19,10,11,6.90
2011,04,19,10,12,7.00
2011,04,19,10,13,7.10
2011,04,19,10,14,7.10
2011,04,19,10,15,7.20
2011,04,19,10,16,7.20
2011,04,19,10,17,7.30
2011,04,19,10,18,7.40
2011,04,19,10,19,7.40
2011,04,19,10,20,7.40
2011,04,19,10,21,7.30
2011,04,19,10,22,7.30
2011,04,19,10,23,7.20
2011,04,19,10,24,7.20
2011,04,19,10,25,7.30
2011,04,19,10,26,7.30
2011,04,19,10,27,7.30
2011,04,19,10,28,7.40
2011,04,19,10,29,7.40
2011,04,19,10,30,7.50
2011,04,19,10,31,7.60
2011,04,19,10,32,7.70
2011,04,19,10,33,7.80
2011,04,19,10,34,8.00
2011,04,19,10,35,8.10
2011,04,19,10,36,8.20
2011,04,19,10,37,8.30
2011,04,19,10,38,8.30
2011,04,19,10,39,8.40
2011,04,19,10,40,8.40
2011,04,19,10,41,8.40
2011,04,19,10,42,8.20
2011,04,19,10,43,8.10
2011,04,19,10,44,8.10
2011,04,19,10,45,8.00
2011,04,19,10,46,7.90
2011,04,19,10,47,7.80
2011,04,19,10,48,7.80
2011,04,19,10,49,7.80
2011,04,19,10,50,7.80
2011,04,19,10,51,7.80
2011,04,19,10,52,7.90
2011,04,19,10,53,8.00
2011,04,19,10,54,8.10
2011,04,19,10,55,8.10
2011,04,19,10,56,8.20
2011,04,19,10,57,8.30
2011,04,19,10,58,8.30
2011,04,19,10,59,8.30
2011,04,19,11,00,8.40
2011,04,19,11,01,8.40
2011,04,19,11,02,8.50
2011,04,19,11,03,8.50
2011,04,19,11,04,8.50
2011,04,19,11,05,8.50
2011,04,19,11,06,8.50
2011,04,19,11,07,8.40
2011,04,19,11,08,8.40
2011,04,19,11,09,8.40
2011,04,19,11,10,8.40
2011,04,19,11,11,8.60
2011,04,19,11,12,8.70
2011,04,19,11,13,8.80
2011,04,19,11,14,8.80
2011,04,19,11,15,8.70
2011,04,19,11,16,8.60
2011,04,19,11,17,8.60
2011,04,19,11,18,8.60
2011,04,19,11,19,8.70
2011,04,19,11,20,8.70
2011,04,19,11,21,8.60
2011,04,19,11,22,8.60
2011,04,19,11,23,8.50
2011,04,19,11,24,8.50
2011,04,19,11,25,8.50
2011,04,19,11,26,8.50
2011,04,19,11,27,8.50
2011,04,19,11,28,8.40
2011,04,19,11,29,8.30
2011,04,19,11,30,8.30
2011,04,19,11,31,8.40
2011,04,19,11,32,8.50
2011,04,19,11,33,8.60
2011,04,19,11,34,8.70
2011,04,19,11,35,8.80
2011,04,19,11,36,8.90
2011,04,19,11,37,9.00
2011,04,19,11,38,9.10
2011,04,19,11,39,9.20
2011,04,19,11,40,9.30
2011,04,19,11,41,9.30
2011,04,19,11,42,9.40
2011,04,19,11,43,9.40
2011,04,19,11,44,9.50
2011,04,19,11,45,9.50
2011,04,19,11,46,9.40
2011,04,19,11,47,9.30
2011,04,19,11,48,9.30
2011,04,19,11,49,9.30
2011,04,19,11,50,9.40
2011,04,19,11,51,9.30
2011,04,19,11,52,9.40
2011,04,19,11,53,9.40
2011,04,19,11,54,9.50
2011,04,19,11,55,9.60
2011,04,19,11,56,9.60
2011,04,19,11,57,9.70
2011,04,19,11,58,9.80
2011,04,19,11,59,9.80
2011,04,19,12,00,9.80
2011,04,19,12,01,9.90
2011,04,19,12,02,10.00
2011,04,19,12,03,10.00
2011,04,19,12,04,9.90
2011,04,19,12,05,9.80
2011,04,19,12,06,9.80
2011,04,19,12,07,9.80
2011,04,19,12,08,9.70
2011,04,19,12,09,9.70
2011,04,19,12,10,9.80
2011,04,19,12,11,9.80
2011,04,19,12,12,9.90
2011,04,19,12,13,10.00
2011,04,19,12,14,10.00
2011,04,19,12,15,10.00
2011,04,19,12,16,9.80
2011,04,19,12,17,9.70
2011,04,19,12,18,9.60
2011,04,19,12,19,9.50
2011,04,19,12,20,9.50
2011,04,19,12,21,9.50
2011,04,19,12,22,9.50
2011,04,19,12,23,9.60
2011,04,19,12,24,9.60
2011,04,19,12,25,9.60
2011,04,19,12,26,9.70
2011,04,19,12,27,9.70
2011,04,19,12,28,9.70
2011,04,19,12,29,9.70
2011,04,19,12,30,9.80
2011,04,19,12,31,9.80
2011,04,19,12,32,9.80
2011,04,19,12,33,9.80
2011,04,19,12,34,9.80
2011,04,19,12,35,9.90
2011,04,19,12,36,10.00
2011,04,19,12,37,10.10
2011,04,19,12,38,10.20
2011,04,19,12,39,10.40
2011,04,19,12,40,10.50
2011,04,19,12,41,10.60
2011,04,19,12,42,10.60
2011,04,19,12,43,10.40
2011,04,19,12,44,10.20
2011,04,19,12,45,10.00
2011,04,19,12,46,9.90
2011,04,19,12,47,9.80
2011,04,19,12,48,9.70
2011,04,19,12,49,9.60
2011,04,19,12,50,9.40
2011,04,19,12,51,9.30
2011,04,19,12,52,9.20
2011,04,19,12,53,9.20
2011,04,19,12,54,9.20
2011,04,19,12,55,9.30
2011,04,19,12,56,9.30
2011,04,19,12,57,9.40
2011,04,19,12,58,9.50
2011,04,19,12,59,9.50
2011,04,19,13,00,9.60
2011,04,19,13,01,9.60
2011,04,19,13,02,9.50
2011,04,19,13,03,9.50
2011,04,19,13,04,9.50
2011,04,19,13,05,9.50
2011,04,19,13,06,9.60
2011,04,19,13,07,9.70
2011,04,19,13,08,9.80
2011,04,19,13,09,9.90
2011,04,19,13,10,10.00
2011,04,19,13,11,10.00
2011,04,19,13,12,10.10
2011,04,19,13,13,10.10
2011,04,19,13,14,10.20
2011,04,19,13,15,10.30
2011,04,19,13,16,10.40
2011,04,19,13,17,10.40
2011,04,19,13,18,10.50
2011,04,19,13,19,10.50
2011,04,19,13,20,10.60
2011,04,19,13,21,10.50
2011,04,19,13,22,10.30
2011,04,19,13,23,10.30
2011,04,19,13,24,10.30
2011,04,19,13,25,10.30
2011,04,19,13,26,10.30
2011,04,19,13,27,10.30
2011,04,19,13,28,10.20
2011,04,19,13,29,10.20
2011,04,19,13,30,10.20
2011,04,19,13,31,10.20
2011,04,19,13,32,10.30
2011,04,19,13,33,10.40
2011,04,19,13,34,10.50
2011,04,19,13,35,10.60
2011,04,19,13,36,10.60
2011,04,19,13,37,10.50
2011,04,19,13,38,10.50
2011,04,19,13,39,10.40
2011,04,19,13,40,10.40
2011,04,19,13,41,10.30
2011,04,19,13,42,10.20
2011,04,19,13,43,10.20
2011,04,19,13,44,10.10
2011,04,19,13,45,10.00
2011,04,19,13,46,10.00
2011,04,19,13,47,9.90
2011,04,19,13,48,9.80
2011,04,19,13,49,9.80
2011,04,19,13,50,9.80
2011,04,19,13,51,9.90
2011,04,19,13,52,9.90
2011,04,19,13,53,9.90
2011,04,19,13,54,9.90
2011,04,19,13,55,9.80
2011,04,19,13,56,9.80
2011,04,19,13,57,9.70
2011,04,19,13,58,9.60
2011,04,19,13,59,9.60
2011,04,19,14,00,9.50
2011,04,19,14,01,9.40
2011,04,19,14,02,9.20
2011,04,19,14,03,9.10
2011,04,19,14,04,9.00
2011,04,19,14,05,8.90
2011,04,19,14,06,8.90
2011,04,19,14,07,8.90
2011,04,19,14,08,8.90
2011,04,19,14,09,8.90
2011,04,19,14,10,8.80
2011,04,19,14,11,8.80
2011,04,19,14,12,8.70
2011,04,19,14,13,8.70
2011,04,19,14,14,8.70
2011,04,19,14,15,8.60
2011,04,19,14,16,8.60
2011,04,19,14,17,8.60
2011,04,19,14,18,8.60
2011,04,19,14,19,8.60
2011,04,19,14,20,8.70
2011,04,19,14,21,8.80
2011,04,19,14,22,8.90
2011,04,19,14,23,9.00
2011,04,19,14,24,9.00
2011,04,19,14,25,9.00
2011,04,19,14,26,9.10
2011,04,19,14,27,9.20
2011,04,19,14,28,9.30
2011,04,19,14,29,9.40
2011,04,19,14,30,9.50
2011,04,19,14,31,9.50
2011,04,19,14,32,9.50
2011,04,19,14,33,9.50
2011,04,19,14,34,9.60
2011,04,19,14,35,9.70
2011,04,19,14,36,9.70
2011,04,19,14,37,9.70
2011,04,19,14,38,9.80
2011,04,19,14,39,9.80
2011,04,19,14,40,9.70
2011,04,19,14,41,9.70
2011,04,19,14,42,9.60
2011,04,19,14,43,9.60
2011,04,19,14,44,9.60
2011,04,19,14,45,9.60
2011,04,19,14,46,9.60
2011,04,19,14,47,9.60
2011,04,19,14,48,9.40
2011,04,19,14,49,9.30
2011,04,19,14,50,9.00
2011,04,19,14,51,8.70
2011,04,19,14,52,8.50
2011,04,19,14,53,8.30
2011,04,19,14,54,8.10
2011,04,19,14,55,7.90
2011,04,19,14,56,7.80
2011,04,19,14,57,7.70
2011,04,19,14,58,7.60
2011,04,19,14,59,7.50
2011,04,19,15,00,7.40
2011,04,19,15,01,7.40
2011,04,19,15,02,7.40
2011,04,19,15,03,7.40
2011,04,19,15,04,7.40
2011,04,19,15,05,7.40
2011,04,19,15,06,7.40
2011,04,19,15,07,7.40
2011,04,19,15,08,7.50
2011,04,19,15,09,7.60
2011,04,19,15,10,7.60
2011,04,19,15,11,7.70
2011,04,19,15,12,7.70
2011,04,19,15,13,7.80
2011,04,19,15,14,7.90
2011,04,19,15,15,7.90
2011,04,19,15,16,7.90
2011,04,19,15,17,7.90
2011,04,19,15,18,8.00
2011,04,19,15,19,8.00
2011,04,19,15,20,8.10
2011,04,19,15,21,8.10
2011,04,19,15,22,8.10
2011,04,19,15,23,8.20
2011,04,19,15,24,8.20
2011,04,19,15,25,8.20
2011,04,19,15,26,8.20
2011,04,19,15,27,8.20
2011,04,19,15,28,8.10
2011,04,19,15,29,8.00
2011,04,19,15,30,7.90
2011,04,19,15,31,7.80
2011,04,19,15,32,7.70
2011,04,19,15,33,7.70
2011,04,19,15,34,7.70
2011,04,19,15,35,7.60
2011,04,19,15,36,7.60
2011,04,19,15,37,7.60
2011,04,19,15,38,7.60
2011,04,19,15,39,7.50
2011,04,19,15,40,7.50
2011,04,19,15,41,7.40
2011,04,19,15,42,7.40
2011,04,19,15,43,7.40
2011,04,19,15,44,7.40
2011,04,19,15,45,7.30
2011,04,19,15,46,7.30
2011,04,19,15,47,7.30
2011,04,19,15,48,7.20
2011,04,19,15,49,7.20
2011,04,19,15,50,7.20
2011,04,19,15,51,7.20
2011,04,19,15,52,7.20
2011,04,19,15,53,7.20
2011,04,19,15,54,7.20
2011,04,19,15,55,7.20
2011,04,19,15,56,7.20
2011,04,19,15,57,7.20
2011,04,19,15,58,7.20
2011,04,19,15,59,7.20
2011,04,19,16,00,7.30
2011,04,19,16,01,7.30
2011,04,19,16,02,7.30
2011,04,19,16,03,7.30
2011,04,19,16,04,7.30
2011,04,19,16,05,7.30
2011,04,19,16,06,7.30
2011,04,19,16,07,7.30
2011,04,19,16,08,7.30
2011,04,19,16,09,7.30
2011,04,19,16,10,7.30
2011,04,19,16,11,7.30
2011,04,19,16,12,7.30
2011,04,19,16,13,7.30
2011,04,19,16,14,7.30
2011,04,19,16,15,7.30
2011,04,19,16,16,7.40
2011,04,19,16,17,7.40
2011,04,19,16,18,7.40
2011,04,19,16,19,7.40
2011,04,19,16,20,7.40
2011,04,19,16,21,7.40
2011,04,19,16,22,7.40
2011,04,19,16,23,7.40
2011,04,19,16,24,7.40
2011,04,19,16,25,7.40
2011,04,19,16,26,7.40
2011,04,19,16,27,7.50
2011,04,19,16,28,7.60
2011,04,19,16,29,7.70
2011,04,19,16,30,7.70
2011,04,19,16,31,7.80
2011,04,19,16,32,7.90
2011,04,19,16,33,8.00
2011,04,19,16,34,8.10
2011,04,19,16,35,8.10
2011,04,19,16,36,8.10
2011,04,19,16,37,8.10
2011,04,19,16,38,8.10
2011,04,19,16,39,8.20
2011,04,19,16,40,8.20
2011,04,19,16,41,8.10
2011,04,19,16,42,8.00
2011,04,19,16,43,8.00
2011,04,19,16,44,7.90
2011,04,19,16,45,7.90
2011,04,19,16,46,7.80
2011,04,19,16,47,7.80
2011,04,19,16,48,7.70
2011,04,19,16,49,7.70
2011,04,19,16,50,7.70
2011,04,19,16,51,7.70
2011,04,19,16,52,7.70
2011,04,19,16,53,7.70
2011,04,19,16,54,7.70
2011,04,19,16,55,7.70
2011,04,19,16,56,7.70
2011,04,19,16,57,7.60
2011,04,19,16,58,7.60
2011,04,19,16,59,7.60
2011,04,19,17,00,7.60
2011,04,19,17,01,7.60
2011,04,19,17,02,7.60
2011,04,19,17,03,7.60
2011,04,19,17,04,7.60
2011,04,19,17,05,7.60
2011,04,19,17,06,7.60
2011,04,19,17,07,7.60
2011,04,19,17,08,7.70
2011,04,19,17,09,7.70
2011,04,19,17,10,7.80
2011,04,19,17,11,7.80
2011,04,19,17,12,7.80
2011,04,19,17,13,7.80
2011,04,19,17,14,7.80
2011,04,19,17,15,7.90
2011,04,19,17,16,7.90
2011,04,19,17,17,7.90
2011,04,19,17,18,8.00
2011,04,19,17,19,8.00
2011,04,19,17,20,8.00
2011,04,19,17,21,8.00
2011,04,19,17,22,8.10
2011,04,19,17,23,8.10
2011,04,19,17,24,8.10
2011,04,19,17,25,8.20
2011,04,19,17,26,8.20
2011,04,19,17,27,8.20
2011,04,19,17,28,8.20
2011,04,19,17,29,8.20
2011,04,19,17,30,8.20
2011,04,19,17,31,8.20
2011,04,19,17,32,8.20
2011,04,19,17,33,8.20
2011,04,19,17,34,8.20
2011,04,19,17,35,8.20
2011,04,19,17,36,8.20
2011,04,19,17,37,8.20
2011,04,19,17,38,8.20
2011,04,19,17,39,8.20
2011,04,19,17,40,8.20
2011,04,19,17,41,8.20
2011,04,19,17,42,8.20
2011,04,19,17,43,8.20
2011,04,19,17,44,8.20
2011,04,19,17,45,8.20
2011,04,19,17,46,8.20
2011,04,19,17,47,8.20
2011,04,19,17,48,8.20
2011,04,19,17,49,8.20
2011,04,19,17,50,8.20
2011,04,19,17,51,8.20
2011,04,19,17,52,8.20
2011,04,19,17,53,8.20
2011,04,19,17,54,8.20
2011,04,19,17,55,8.20
2011,04,19,17,56,8.30
2011,04,19,17,57,8.30
2011,04,19,17,58,8.30
2011,04,19,17,59,8.30
2011,04,19,18,00,8.30
2011,04,19,18,01,8.30
2011,04,19,18,02,8.30